Weather History for KDVN - May, 2013

Change the Weather History Date:

Monday, May 20, 2013

  Actual Average Record
Temperature  
Mean Temperature 71 °F 62 °F  
Max Temperature 80 °F 73 °F 89 °F (1972)
Min Temperature 62 °F 51 °F 37 °F (2002)
Degree Days  
Heating Degree Days 0 5  
Month to date heating degree days 114 145  
Since 1 July heating degree days 6498 6449  
Cooling Degree Days 6 2  
Month to date cooling degree days 54 26  
Year to date cooling degree days 64 32  
Growing Degree Days 22 (Base 50)    
Moisture  
Dew Point 60 °F    
Average Humidity 72    
Maximum Humidity 93    
Minimum Humidity 51    
Precipitation  
Precipitation 0.05 in 0.14 in 2.62 in (2001)
Month to date precipitation 3.20 2.63  
Year to date precipitation 15.65 11.19  
Snow  
Snow 0.00 in - - ()
Month to date snowfall T  
Since 1 July snowfall 27.1  
Snow Depth 0.00 in    
Sea Level Pressure  
Sea Level Pressure 29.70 in    
Wind  
Wind Speed 15 mph (SSW)    
Max Wind Speed 43 mph    
Max Gust Speed 58 mph    
Visibility 10 miles    
Events Rain , Thunderstorm    
T = Trace of Precipitation, MM = Missing Value Source: NWS Daily Summary

Daily Weather History Graph

Daily Weather History Graph

Search for Another Location

Airport or City:

Trip Planner

Search our weather history database for the weather conditions in past years. The results will help you decide how hot, cold, wet, or windy it might be!

Date:

Astronomy

May. 20, 2013 Rise Set
Actual Time 5:38 AM CDT 8:20 PM CDT
Civil Twilight 5:05 AM CDT 8:52 PM CDT
Nautical Twilight 4:25 AM CDT 9:33 PM CDT
Astronomical Twilight 3:39 AM CDT 10:19 PM CDT
Moon 3:24 PM CDT (5/20) 2:37 AM CDT (5/20)
Length of Visible Light 15h 46m
Length of Day
14h 42m
Waxing Gibbous, 75% of the Moon is Illuminated
May 20
Waxing Gibbous
May 24
Full
May 31
Last Quarter
Jun 8
New
Jun 16
First Quarter

Hourly Weather History & Observations

Time (CDT) Temp. Heat Index Dew Point Humidity Pressure Visibility Wind Dir Wind Speed Gust Speed Precip Events Conditions
12:14 AM 64.4 °F - 60.8 °F 88% 29.76 in 7.0 mi WSW 9.2 mph - 0.09 in Rain , Thunderstorm Light Rain
12:30 AM 64.4 °F - 60.8 °F 88% 29.73 in 10.0 mi SSW 5.8 mph - 0.09 in   Scattered Clouds
12:52 AM 63.0 °F - 61.0 °F 93% 29.72 in 10.0 mi South 8.1 mph - 0.09 in   Clear
1:52 AM 63.0 °F - 61.0 °F 93% 29.72 in 10.0 mi South 9.2 mph - N/A   Partly Cloudy
2:52 AM 64.9 °F - 60.1 °F 84% 29.73 in 10.0 mi SSW 10.4 mph 21.9 mph N/A   Mostly Cloudy
3:52 AM 63.0 °F - 60.1 °F 90% 29.68 in 10.0 mi SE 9.2 mph - N/A   Partly Cloudy
5:52 AM 63.0 °F - 59.0 °F 87% 29.70 in 10.0 mi South 13.8 mph 24.2 mph 0.03 in Rain Light Rain
6:52 AM 63.0 °F - 59.0 °F 87% 29.71 in 10.0 mi SSW 6.9 mph - 0.00 in   Clear
7:52 AM 64.9 °F - 59.0 °F 81% 29.72 in 10.0 mi South 12.7 mph - N/A   Clear
8:52 AM 68.0 °F - 59.0 °F 73% 29.72 in 10.0 mi SSW 13.8 mph 25.3 mph N/A   Clear
9:52 AM 71.1 °F - 61.0 °F 70% 29.72 in 10.0 mi SSW 17.3 mph 21.9 mph N/A   Clear
10:52 AM 73.0 °F - 60.1 °F 64% 29.72 in 10.0 mi SSW 19.6 mph 27.6 mph N/A   Clear
11:52 AM 75.0 °F - 60.1 °F 60% 29.73 in 10.0 mi South 21.9 mph 26.5 mph N/A   Clear
12:52 PM 77.0 °F - 62.1 °F 60% 29.73 in 10.0 mi SW 15.0 mph 23.0 mph N/A   Clear
1:52 PM 78.1 °F - 63.0 °F 60% 29.75 in 10.0 mi SSW 17.3 mph 25.3 mph N/A   Clear
2:52 PM 77.0 °F - 62.1 °F 60% 29.73 in 10.0 mi South 15.0 mph 21.9 mph N/A   Clear
3:52 PM 80.1 °F 80.9 °F 60.1 °F 50% 29.71 in 10.0 mi SW 17.3 mph 23.0 mph N/A   Clear
4:52 PM 80.1 °F 80.9 °F 60.1 °F 50% 29.70 in 10.0 mi SSW 17.3 mph 28.8 mph N/A   Clear
5:52 PM 79.0 °F - 60.1 °F 52% 29.69 in 10.0 mi SSW 17.3 mph 27.6 mph N/A   Clear
6:52 PM 77.0 °F - 59.0 °F 54% 29.70 in 10.0 mi SSW 11.5 mph - N/A   Partly Cloudy
7:52 PM 73.9 °F - 60.1 °F 62% 29.68 in 10.0 mi West 4.6 mph - N/A   Partly Cloudy
8:52 PM 71.1 °F - 57.9 °F 63% 29.64 in 10.0 mi South 32.2 mph 46.0 mph 0.00 in Rain , Thunderstorm Light Rain
9:12 PM 68.0 °F - 57.2 °F 68% 29.52 in 5.0 mi SE 27.6 mph 49.5 mph 0.02 in Rain Light Rain
9:52 PM 68.0 °F - 55.9 °F 65% 29.62 in 10.0 mi South 17.3 mph - 0.02 in   Clear
10:52 PM 66.0 °F - 57.9 °F 75% 29.63 in 10.0 mi SSE 16.1 mph - N/A   Clear
11:52 PM 66.0 °F - 57.9 °F 75% 29.68 in 10.0 mi South 17.3 mph 24.2 mph N/A   Clear